TimeCDT,TemperatureF,Dew PointF,Humidity,Sea Level PressureIn,VisibilityMPH,Wind Direction,Wind SpeedMPH,Gust SpeedMPH,PrecipitationIn,Events,Conditions,WindDirDegrees,DateUTC
12:15 AM,28.4,26.6,93,29.78,10.0,NW,16.1,-,N/A,,Clear,310,2013-04-12 05:15:00
12:35 AM,28.4,26.6,93,29.79,10.0,NW,15.0,-,N/A,,Clear,310,2013-04-12 05:35:00
12:55 AM,28.4,24.8,86,29.79,10.0,NW,13.8,20.7,N/A,,Clear,310,2013-04-12 05:55:00
1:15 AM,28.4,24.8,86,29.79,10.0,NW,17.3,-,N/A,,Clear,310,2013-04-12 06:15:00
1:35 AM,28.4,24.8,86,29.79,10.0,NW,17.3,23.0,N/A,,Clear,320,2013-04-12 06:35:00
1:55 AM,28.4,24.8,86,29.80,10.0,NW,18.4,-,N/A,,Mostly Cloudy,310,2013-04-12 06:55:00
2:15 AM,28.4,24.8,86,29.80,10.0,NW,17.3,23.0,N/A,,Scattered Clouds,320,2013-04-12 07:15:00
2:35 AM,28.4,24.8,86,29.80,10.0,NW,16.1,-,N/A,,Overcast,320,2013-04-12 07:35:00
2:55 AM,28.4,24.8,86,29.79,10.0,NW,17.3,-,N/A,,Overcast,310,2013-04-12 07:55:00
3:15 AM,28.4,24.8,86,29.79,10.0,NW,17.3,-,N/A,,Overcast,310,2013-04-12 08:15:00
3:35 AM,26.6,24.8,93,29.80,10.0,NW,16.1,-,N/A,,Scattered Clouds,310,2013-04-12 08:35:00
3:55 AM,26.6,24.8,93,29.80,10.0,NW,17.3,-,N/A,,Mostly Cloudy,310,2013-04-12 08:55:00
4:15 AM,26.6,24.8,93,29.80,10.0,NW,18.4,24.2,N/A,,Mostly Cloudy,320,2013-04-12 09:15:00
4:35 AM,26.6,24.8,93,29.80,10.0,NW,18.4,25.3,N/A,,Clear,320,2013-04-12 09:35:00
4:55 AM,26.6,24.8,93,29.82,10.0,NW,17.3,-,N/A,,Clear,310,2013-04-12 09:55:00
5:15 AM,28.4,24.8,86,29.82,10.0,NW,17.3,-,N/A,,Mostly Cloudy,310,2013-04-12 10:15:00
5:35 AM,28.4,24.8,86,29.83,10.0,NW,17.3,21.9,N/A,,Overcast,310,2013-04-12 10:35:00
5:55 AM,28.4,24.8,86,29.83,10.0,NW,17.3,-,N/A,,Overcast,320,2013-04-12 10:55:00
6:15 AM,28.4,24.8,86,29.83,10.0,NNW,21.9,26.5,N/A,,Overcast,330,2013-04-12 11:15:00
6:35 AM,28.4,24.8,86,29.84,10.0,NW,19.6,25.3,N/A,,Scattered Clouds,320,2013-04-12 11:35:00
6:55 AM,28.4,24.8,86,29.85,10.0,NW,17.3,-,N/A,,Mostly Cloudy,320,2013-04-12 11:55:00
7:15 AM,28.4,24.8,86,29.84,10.0,NNW,15.0,-,N/A,,Overcast,330,2013-04-12 12:15:00
7:35 AM,28.4,24.8,86,29.85,10.0,NNW,11.5,-,N/A,,Overcast,330,2013-04-12 12:35:00
7:55 AM,30.2,26.6,86,29.87,10.0,NW,11.5,-,N/A,,Overcast,320,2013-04-12 12:55:00
8:15 AM,30.2,26.6,86,29.88,10.0,WNW,11.5,-,N/A,,Overcast,300,2013-04-12 13:15:00
8:35 AM,30.2,26.6,86,29.89,10.0,WNW,15.0,-,N/A,,Overcast,290,2013-04-12 13:35:00
8:55 AM,30.2,26.6,86,29.90,10.0,WNW,17.3,-,N/A,,Overcast,300,2013-04-12 13:55:00
9:15 AM,32.0,26.6,80,29.91,10.0,WNW,18.4,-,N/A,,Scattered Clouds,300,2013-04-12 14:15:00
9:55 AM,32.0,28.4,87,29.91,10.0,NW,17.3,24.2,N/A,,Scattered Clouds,320,2013-04-12 14:55:00
10:15 AM,32.0,28.4,87,29.91,10.0,NW,18.4,24.2,N/A,,Partly Cloudy,310,2013-04-12 15:15:00
10:35 AM,32.0,28.4,87,29.91,10.0,NW,16.1,23.0,N/A,,Clear,320,2013-04-12 15:35:00
10:55 AM,32.0,28.4,87,29.91,10.0,NW,18.4,-,0.02,,Partly Cloudy,310,2013-04-12 15:55:00
11:15 AM,33.8,30.2,87,29.92,10.0,NNW,17.3,-,0.01,,Partly Cloudy,330,2013-04-12 16:15:00
11:35 AM,35.6,30.2,81,29.92,10.0,NW,19.6,23.0,0.03,,Partly Cloudy,320,2013-04-12 16:35:00
11:55 AM,35.6,30.2,81,29.93,10.0,NW,16.1,-,0.03,,Scattered Clouds,320,2013-04-12 16:55:00
12:15 PM,35.6,32.0,87,29.92,10.0,NW,17.3,-,N/A,,Scattered Clouds,310,2013-04-12 17:15:00
12:35 PM,35.6,32.0,87,29.93,10.0,NNW,17.3,21.9,N/A,,Scattered Clouds,330,2013-04-12 17:35:00
12:55 PM,37.4,32.0,81,29.93,10.0,NNW,19.6,-,N/A,,Partly Cloudy,330,2013-04-12 17:55:00
1:15 PM,39.2,32.0,75,29.93,10.0,NW,21.9,26.5,N/A,,Partly Cloudy,320,2013-04-12 18:15:00
1:35 PM,39.2,32.0,75,29.93,10.0,NW,17.3,24.2,N/A,,Partly Cloudy,320,2013-04-12 18:35:00
1:55 PM,41.0,32.0,70,29.93,10.0,NW,17.3,28.8,N/A,,Partly Cloudy,320,2013-04-12 18:55:00
2:15 PM,41.0,32.0,70,29.94,10.0,NW,17.3,25.3,N/A,,Scattered Clouds,320,2013-04-12 19:15:00
2:35 PM,41.0,32.0,70,29.94,10.0,NW,13.8,20.7,N/A,,Mostly Cloudy,320,2013-04-12 19:35:00
2:55 PM,41.0,32.0,70,29.95,10.0,NW,18.4,23.0,N/A,,Mostly Cloudy,310,2013-04-12 19:55:00
3:15 PM,42.8,32.0,66,29.95,10.0,NW,12.7,21.9,N/A,,Overcast,320,2013-04-12 20:15:00
3:35 PM,42.8,32.0,66,29.95,10.0,NW,15.0,24.2,N/A,,Mostly Cloudy,320,2013-04-12 20:35:00
3:55 PM,42.8,32.0,66,29.95,10.0,NNW,11.5,-,N/A,,Mostly Cloudy,330,2013-04-12 20:55:00
4:15 PM,44.6,32.0,61,29.94,10.0,NW,17.3,23.0,N/A,,Scattered Clouds,310,2013-04-12 21:15:00
4:35 PM,44.6,32.0,61,29.95,10.0,NW,13.8,-,N/A,,Mostly Cloudy,310,2013-04-12 21:35:00
4:55 PM,42.8,32.0,66,29.95,10.0,NNW,15.0,19.6,N/A,,Mostly Cloudy,330,2013-04-12 21:55:00
5:15 PM,42.8,32.0,66,29.94,10.0,NNW,12.7,17.3,N/A,,Mostly Cloudy,330,2013-04-12 22:15:00
5:35 PM,42.8,32.0,66,29.95,10.0,NNW,10.4,20.7,N/A,,Scattered Clouds,340,2013-04-12 22:35:00
5:55 PM,42.8,32.0,66,29.95,10.0,NNW,15.0,20.7,N/A,,Partly Cloudy,340,2013-04-12 22:55:00
6:15 PM,41.0,32.0,70,29.97,10.0,NW,11.5,-,N/A,,Clear,310,2013-04-12 23:15:00
6:35 PM,41.0,32.0,70,29.97,10.0,NW,12.7,-,N/A,,Partly Cloudy,310,2013-04-12 23:35:00
6:55 PM,41.0,32.0,70,29.97,10.0,NW,9.2,-,N/A,,Partly Cloudy,320,2013-04-12 23:55:00
7:15 PM,41.0,32.0,70,29.97,10.0,NNW,10.4,-,N/A,,Mostly Cloudy,330,2013-04-13 00:15:00
7:35 PM,39.2,32.0,75,29.96,10.0,NNW,8.1,-,N/A,,Scattered Clouds,330,2013-04-13 00:35:00
7:55 PM,37.4,32.0,81,29.96,10.0,NNW,4.6,-,N/A,,Clear,330,2013-04-13 00:55:00
8:15 PM,35.6,32.0,87,29.96,10.0,West,5.8,-,N/A,,Clear,280,2013-04-13 01:15:00
8:35 PM,37.4,32.0,81,29.97,10.0,NNW,4.6,-,N/A,,Mostly Cloudy,330,2013-04-13 01:35:00
8:55 PM,35.6,32.0,87,29.97,10.0,NW,4.6,-,N/A,,Overcast,320,2013-04-13 01:55:00
9:15 PM,35.6,32.0,87,29.98,10.0,WNW,4.6,-,N/A,,Mostly Cloudy,300,2013-04-13 02:15:00
9:35 PM,35.6,32.0,87,29.98,10.0,NW,4.6,-,N/A,,Mostly Cloudy,320,2013-04-13 02:35:00
9:55 PM,33.8,32.0,93,29.99,10.0,NW,3.5,-,N/A,,Overcast,320,2013-04-13 02:55:00
10:15 PM,32.0,30.2,93,30.00,10.0,NNE,6.9,-,N/A,,Scattered Clouds,20,2013-04-13 03:15:00
10:35 PM,32.0,30.2,93,30.01,10.0,North,3.5,-,N/A,,Clear,360,2013-04-13 03:35:00
10:55 PM,32.0,32.0,100,30.01,10.0,Calm,Calm,-,N/A,,Clear,0,2013-04-13 03:55:00
11:15 PM,32.0,30.2,93,30.01,10.0,Calm,Calm,-,N/A,,Clear,0,2013-04-13 04:15:00
11:35 PM,32.0,30.2,93,30.02,10.0,Calm,Calm,-,N/A,,Clear,0,2013-04-13 04:35:00
11:55 PM,32.0,30.2,93,30.02,10.0,Calm,Calm,-,N/A,,Clear,0,2013-04-13 04:55:00